AirNav   Air Wisconsin pilot careers
 
 1575 users online  

KREI Redlands Municipal Airport
Redlands, California, USA

GOING TO REDLANDS?


FAA INFORMATION EFFECTIVE 26 APRIL 2018

Location

FAA Identifier: REI
Lat/Long: 34-05-06.9000N / 117-08-47.0000W
34-05.115000N / 117-08.783333W
34.0852500 / -117.1463889
(estimated)
Elevation: 1574.4 ft. / 479.9 m (surveyed)
Variation: 14E (1995)
From city: 2 miles NE of REDLANDS, CA
Time zone: UTC -7 (UTC -8 during Standard Time)
Zip code: 92374

Airport Operations

Airport use: Open to the public
Activation date: 02/1947
Control tower: no
ARTCC: LOS ANGELES CENTER
FSS: RIVERSIDE FLIGHT SERVICE STATION
NOTAMs facility: RAL (NOTAM-D service available)
Attendance: 0800-1700
Pattern altitude: 2503.4 ft. MSL
Wind indicator: lighted
Segmented circle: yes
Lights: ACTVT MIRL RY 08/26, REIL RYS 08 & RY 26, PAPI RY 08 - CTAF.
Beacon: white-green (lighted land airport)
Operates sunset to sunrise.

Airport Communications

CTAF/UNICOM: 123.05
SOCAL APPROACH: 127.0(NORTH-NE)
SOCAL DEPARTURE: 127.0(NORTH-NE)
CLASS C IC: 127.0(NORTH-NE)
WX AWOS-3 at SBD (4 nm W): 124.175 (909-382-0067)
WX ASOS at RAL (17 nm SW): PHONE 951-352-4392
WX AWOS-3 at BNG (18 nm SE): 134.625 (951-922-4674)
WX AWOS-3 at L35 (18 nm NE): 135.925 (909-585-4033)
  • AUTOMATED UNICOM.
  • FOR CLNC DEL CALL SOCAL APCH (800) 448-3724.

Nearby radio navigation aids

VOR radial/distance  VOR name  Freq  Var
RALr049/(17.0)RIVERSIDE VOR112.4014E
HDFr352/(18.6)HOMELAND VOR113.4014E
PDZr047/21.5PARADISE VORTAC112.2015E
POMr074/31.8POMONA VORTAC110.4015E
VCVr144/32.8VICTORVILLE VOR/DME109.0514E
PSPr277/37.9PALM SPRINGS VORTAC115.5013E
ELBr036/38.1EL TORO VOR/DME117.2014E

 
NDB name  Hdg/Dist  Freq  Var  ID
PETIS067/11.139714ESB ... -...

Airport Services

Fuel available: 100LL
SELF SERVE 100LL FUEL AVAIL. 24-7.
Parking: tiedowns
Airframe service: MAJOR
Powerplant service: MAJOR
Bottled oxygen: NONE
Bulk oxygen: HIGH/LOW

Runway Information

Runway 8/26

Dimensions: 4504 x 75 ft. / 1373 x 23 m
Surface: asphalt, in good condition
Weight bearing capacity: 
Single wheel: 12.5
Runway edge lights: medium intensity
RUNWAY 8  RUNWAY 26
Latitude: 34-05.113665N34-05.118037N
Longitude: 117-09.228998W117-08.336917W
Elevation: 1471.7 ft.1574.4 ft.
Gradient: 2.1%2.1%
Traffic pattern: leftright
Runway heading: 076 magnetic, 090 true256 magnetic, 270 true
Markings: basic, in good conditionbasic, in fair condition
Visual slope indicator: 2-light PAPI on left (3.00 degrees glide path)
Runway end identifier lights: yesyes
Touchdown point: yes, no lightsyes, no lights
Obstructions: 4 ft. fence, 300 ft. from runway, 125 ft. left of centerline, 25:1 slope to clear60 ft. trees, 1500 ft. from runway, 120 ft. left of centerline, 22:1 slope to clear

Airport Ownership and Management from official FAA records

Ownership: Publicly-owned
Owner: CITY OF REDLANDS
35 CAJON STREET, SUITE 15A
REDLANDS, CA 92374
Phone 909-798-7668
Manager: RICK CROSS
35 CAJON STREET, SUITE 222
REDLANDS, CA 92373
Phone 909-798-7655
MAIN NO: 909-798-7655

Airport Operational Statistics

Aircraft based on the field: 230
Single engine airplanes: 205
Multi engine airplanes: 10
Jet airplanes: 2
Helicopters: 10
Gliders airplanes: 2
Ultralights: 1
    
Aircraft operations: avg 120/day *
75% local general aviation
25% transient general aviation
* for 12-month period ending 31 December 2016

Instrument Procedures

NOTE: All procedures below are presented as PDF files. If you need a reader for these files, you should download the free Adobe Reader.

NOT FOR NAVIGATION. Please procure official charts for flight.
FAA instrument procedures published for use from 26 April 2018 at 901Z to 24 May 2018 at 0900Z.

 
IAPs - Instrument Approach Procedures
RNAV (GPS)-A **NEW**   download (329KB)
NOTE: Special Take-Off Minimums/Departure Procedures apply   download (132KB)

Other nearby airports with instrument procedures:

KSBD - San Bernardino International Airport (4 nm W)
KRIV - March Air Reserve Base (13 nm SW)
KRIR - Flabob Airport (14 nm SW)
KRAL - Riverside Municipal Airport (17 nm SW)
L35 - Big Bear City Airport (18 nm NE)
 
Loc | Ops | Rwys | IFR | FBO | Links
Com | Nav | Svcs | Stats | Notes

San Bernardino International Airport Authority
 
Area around KREI (Redlands Municipal Airport)
 
Road maps at: MapQuest Bing Google
 
Aerial photo
WARNING: Photo may not be current or correct
Aerial photo of KREI (Redlands Municipal Airport)
Photo courtesy of Steve Bastuba of Skyview Aerial Photo, Inc.
Photo taken 31-Oct-2013
looking west.

Do you have a better or more recent aerial photo of Redlands Municipal Airport that you would like to share? If so, please send us your photo.

 
Sectional chart

 
Airport distance calculator
Flying to Redlands Municipal Airport? Find the distance to fly.

From to KREI

Sunrise and sunset
Times for 21-May-2018
 Local
(UTC-7)
 Zulu
(UTC)
Morning civil twilight05:1612:16
Sunrise05:4412:44
Sunset19:4602:46
Evening civil twilight20:1503:15

Current date and time
Zulu (UTC)  21-May-2018 19:04:18
Local (UTC-7)  21-May-2018 12:04:18
 
METAR
KREI SuperAWOS
211755Z AUTO 00000KT 2 1/2SM HZ 13/11 A2990
KSBD 
4nm W 
211750Z 26004KT 3SM BR SCT011 BKN018 OVC022 15/13 A2990 RMK VSBY LWR E
KRIV 
14nm SW 
211858Z AUTO 33006KT 10SM OVC032 18/11 A2988 RMK AO2 SLP112 T01780107
KRAL 
17nm SW 
211853Z VRB03KT 8SM BKN018 OVC026 17/13 A2988 RMK AO2 SLP108 T01720128
KL35 
18nm NE 
211855Z AUTO 27009G16KT 10SM BKN110 13/M03 A2993 RMK AO2
TAF
KSBD 
4nm W 
211735Z 2118/2218 VRB04KT 4SM HZ SCT015 OVC022 FM212100 25010KT P6SM SCT025 BKN035 FM220400 24005KT P6SM SCT015 BKN025 FM220700 VRB04KT P6SM OVC015
KRIV 
14nm SW 
211426Z 2114/2218 19006KT 9999 SCT015 OVC020 QNH2983INS BECMG 2115/2116 26009KT 9999 BKN020 QNH2986INS BECMG 2120/2121 33012KT 9999 SCT020 QNH2981INS BECMG 2205/2206 19009KT 9999 BKN008 QNH2988INS TEMPO 2207/2214 4800 -DZ BR OVC005 BECMG 2217/2218 32009KT 9999 BKN010 QNH2993INS TX20/2121Z TN11/2212Z
NOTAMs
Click for the latest NOTAMs
NOTAMs are issued by the DoD/FAA and will open in a separate window not controlled by AirNav.

 

 
 

FBO, Fuel Providers, and Aircraft Ground Support

  
 Business Name 
 
 Contact 
 
 Services / Description 
 
Fuel Prices
 
Comments
  
Redlands Aviation 909-794-5642
no information available

If you are affiliated with Redlands Aviation and would like to show here your services, contact info, web link, logo, and more, click here
100LL
SS $4.59 
 Updated 27-Apr-2018
 
   write
SS=Self service
Update Fuel Prices
 

Would you like to see your business listed on this page?

 If your business provides an interesting product or service to pilots, flight crews, aircraft, or users of the Redlands Municipal Airport, you should consider listing it here.  To start the listing process, click on the button below
 
Add a business
 

Other Pages about Redlands Municipal Airport

www.ci.redlands.ca.us/...
 
Update a link
 
Copyright © AirNav, LLC. All rights reserved. Privacy Policy  Contact